Girona, Spain

9:46 PM CEST on August 17, 2017 (GMT +0200)
Girona

Weather History for LEGE - December, 2013

Change the Weather History Date:

Thursday, December 5, 2013

  Actual Average Record
Temperature  
Mean Temperature 46 °F -  
Max Temperature 63 °F 55 °F 75 °F (2006)
Min Temperature 28 °F 36 °F 28 °F (2013)
Degree Days  
Heating Degree Days 20    
Moisture  
Dew Point 35 °F    
Average Humidity 78    
Maximum Humidity 100    
Minimum Humidity 24    
Precipitation  
Precipitation 0.00 in 0.06 in - ()
Sea Level Pressure  
Sea Level Pressure 30.27 in    
Wind  
Wind Speed 1 mph ()    
Max Wind Speed 7 mph    
Max Gust Speed -    
Visibility 8.3 miles    
Events      
Averages and records for this station are not official NWS values.
T = Trace of Precipitation, MM = Missing Value Source: Averaged Metar Reports

Daily Weather History Graph

Daily Weather History Graph

Search for Another Location

Airport or City:

Trip Planner

Search our weather history database for the weather conditions in past years. The results will help you decide how hot, cold, wet, or windy it might be!

Date:

Astronomy

Dec. 05, 2013 Rise Set
Actual Time 8:01 AM CET 5:17 PM CET
Civil Twilight 7:29 AM CET 5:49 PM CET
Nautical Twilight 6:54 AM CET 6:24 PM CET
Astronomical Twilight 6:21 AM CET 6:57 PM CET
Moon 10:07 AM CET (12/5) 8:21 PM CET (12/5)
Length of Visible Light 10h 19m
Length of Day
9h 16m
Waxing Crescent, 9% of the Moon is Illuminated
Dec 5
Waxing Crescent
Dec 9
First Quarter
Dec 17
Full
Dec 25
Last Quarter
Jan 1
New

Hourly Weather History & Observations

Time (CET) Temp. Windchill Dew Point Humidity Pressure Visibility Wind Dir Wind Speed Gust Speed Precip Events Conditions
12:00 AM 33 °F - 31 °F 88% 30.31 in - Calm Calm - -  
12:00 AM 33.8 °F - 30.2 °F 87% 30.30 in - Variable 1.2 mph - N/A   Clear
12:30 AM 37.4 °F - 30.2 °F 75% 30.30 in - Calm Calm - N/A   Clear
1:00 AM 34 °F - 30 °F 79% 30.30 in 16 mi WNW 1.2 mph - -  
1:00 AM 33.8 °F - 30.2 °F 87% 30.27 in - Calm Calm - N/A   Clear
1:30 AM 33.8 °F - 30.2 °F 87% 30.27 in - Calm Calm - N/A   Clear
2:00 AM 31 °F - 29 °F 90% 30.29 in - ENE 2.3 mph - -  
2:00 AM 30.2 °F - 28.4 °F 93% 30.27 in - NE 2.3 mph - N/A   Clear
2:30 AM 33.8 °F - 30.2 °F 87% 30.27 in - Calm Calm - N/A   Clear
3:00 AM 32 °F - 30 °F 87% 30.29 in - NNE 1.2 mph - -  
3:00 AM 32.0 °F - 30.2 °F 93% 30.27 in - NNE 1.2 mph - N/A   Clear
3:30 AM 32.0 °F - 28.4 °F 87% 30.27 in - Calm Calm - N/A   Clear
4:00 AM 32.0 °F - 30.2 °F 93% 30.27 in - Calm Calm - N/A   Clear
4:30 AM 32.0 °F - 28.4 °F 87% 30.27 in - Calm Calm - N/A   Clear
5:00 AM 31 °F - 29 °F 92% 30.27 in - Calm Calm - -  
5:00 AM 32.0 °F - 28.4 °F 87% 30.24 in - Calm Calm - N/A   Clear
5:30 AM 30.2 °F - 28.4 °F 93% 30.24 in - NE 1.2 mph - N/A   Clear
6:00 AM 30 °F - 29 °F 96% 30.27 in - Calm Calm - -  
6:00 AM 30.2 °F - 28.4 °F 93% 30.24 in - Calm Calm - N/A   Clear
6:30 AM 30.2 °F - 28.4 °F 93% 30.27 in - Calm Calm - N/A   Clear
7:00 AM 30 °F - 29 °F 93% 30.28 in 12 mi Calm Calm - -  
7:00 AM 30.2 °F - 28.4 °F 93% 30.27 in - Calm Calm - N/A   Clear
7:30 AM 30.2 °F - 28.4 °F 93% 30.24 in - SW 1.2 mph - N/A   Clear
8:00 AM 29 °F - 28 °F 92% 30.29 in - Calm Calm - -  
8:00 AM 30.2 °F - 28.4 °F 93% 30.27 in - Calm Calm - N/A   Clear
8:30 AM 28.4 °F - 26.6 °F 93% 30.27 in - Variable 1.2 mph - N/A   Clear
9:00 AM 36 °F - 32 °F 79% 30.29 in - Calm Calm - -  
9:00 AM 35.6 °F - 32.0 °F 87% 30.27 in - Calm Calm - N/A   Clear
9:30 AM 35.6 °F - 32.0 °F 87% 30.27 in - Variable 1.2 mph - N/A   Clear
10:00 AM 37.4 °F - 32.0 °F 81% 30.30 in - Variable 1.2 mph - N/A   Clear
10:30 AM 44.6 °F - 33.8 °F 66% 30.30 in - Calm Calm - N/A   Clear
11:00 AM 49 °F - 36 °F 49% 30.30 in - Calm Calm - -  
11:00 AM 48.2 °F - 35.6 °F 62% 30.30 in - Calm Calm - N/A   Clear
11:30 AM 50.0 °F - 35.6 °F 58% 30.30 in - Calm Calm - N/A   Clear
12:00 PM 55 °F - 32 °F 29% 30.28 in - South 1.2 mph - -  
12:00 PM 53.6 °F - 32.0 °F 44% 30.27 in - Calm Calm - N/A   Clear
12:30 PM 55.4 °F - 33.8 °F 44% 30.27 in - Variable 2.3 mph - N/A   Clear
1:00 PM 60 °F - 33 °F 24% 30.24 in 19 mi South 4.6 mph - -  
1:00 PM 57.2 °F - 35.6 °F 44% 30.24 in - South 3.5 mph - N/A   Clear
1:30 PM 59.0 °F - 35.6 °F 42% 30.24 in - South 3.5 mph - N/A   Clear
2:00 PM 62 °F - 38 °F 29% 30.23 in - South 4.6 mph - -  
2:00 PM 60.8 °F - 37.4 °F 42% 30.24 in - South 3.5 mph - N/A   Clear
2:30 PM 60.8 °F - 35.6 °F 39% 30.24 in - South 3.5 mph - N/A   Clear
3:00 PM 63 °F - 36 °F 25% 30.21 in - SSW 3.5 mph - -  
3:00 PM 60.8 °F - 33.8 °F 36% 30.21 in - Variable 2.3 mph - N/A   Clear
3:30 PM 60.8 °F - 46.4 °F 59% 30.21 in - SSW 5.8 mph - N/A   Clear
4:00 PM 59.0 °F - 46.4 °F 63% 30.21 in - SW 5.8 mph - N/A   Clear
4:30 PM 57.2 °F - 46.4 °F 67% 30.24 in - South 6.9 mph - N/A   Clear
5:00 PM 53 °F - 46 °F 69% 30.24 in - SSW 6.9 mph - -  
5:00 PM 51.8 °F - 46.4 °F 82% 30.24 in - SSW 6.9 mph - N/A   Clear
5:30 PM 51.8 °F - 46.4 °F 82% 30.24 in - WSW 3.5 mph - N/A   Clear
6:00 PM 49 °F - 45 °F 80% 30.25 in - WSW 6.9 mph - -  
6:00 PM 50.0 °F - 44.6 °F 82% 30.24 in - WSW 4.6 mph - N/A   Clear
6:30 PM 48.2 °F - 46.4 °F 93% 30.24 in - SW 3.5 mph - N/A   Clear
7:00 PM 47 °F - 43 °F 82% 30.26 in 12 mi WSW 2.3 mph - -  
7:00 PM 48.2 °F - 44.6 °F 87% 30.27 in - Variable 1.2 mph - N/A   Clear
7:30 PM 42.8 °F - 41.0 °F 93% 30.27 in - Calm Calm - N/A   Clear
8:00 PM 43 °F - 42 °F 93% 30.28 in - WSW 3.5 mph - -  
8:00 PM 42.8 °F - 42.8 °F 100% 30.27 in - Variable 1.2 mph - N/A   Clear
8:30 PM 41.0 °F - 39.2 °F 93% 30.27 in - Calm Calm - N/A   Clear
9:00 PM 40 °F - 40 °F 100% 30.28 in - WSW 2.3 mph - -  
9:00 PM 41.0 °F - 41.0 °F 100% 30.27 in 5.0 mi Calm Calm - N/A   Unknown
9:30 PM 41.0 °F - 39.2 °F 93% 30.27 in 5.6 mi NE 2.3 mph - N/A   Unknown
10:00 PM 37.4 °F 33.8 °F 37.4 °F 100% 30.30 in 3.7 mi NE 4.6 mph - N/A   Unknown
10:30 PM 39.2 °F - 39.2 °F 100% 30.30 in 3.1 mi Variable 1.2 mph - N/A   Mist
11:00 PM 38 °F - 38 °F 99% 30.30 in - Calm Calm - -  
11:00 PM 37.4 °F - 37.4 °F 100% 30.27 in 3.1 mi Variable 1.2 mph - N/A   Mist
11:30 PM 35.6 °F - 35.6 °F 100% 30.27 in 3.7 mi Calm Calm - N/A   Unknown